Location: Brown Observing Site
(43.4354°N, 116.3366°W)
Time: 00:31:14
(UTC-06:00)

Envisat - Pass Details

Date: 28 March 2019
Orbit: 764 x 766 km, 98.2° (Epoch: 25 April)

Event Time Altitude Azimuth Distance (km) Brightness Sun altitude
Rises 20:35:01 0° 175° (S) 3,217 6.1 -5.8°
Reaches altitude 10° 20:37:21 10° 179° (S) 2,295 5.4 -6.3°
Maximum altitude 20:42:20 60° 259° (W) 877 3.7 -7.1°
Drops below altitude 10° 20:47:23 10° 340° (NNW) 2,311 6.0 -8.0°
Sets 20:49:44 0° 344° (NNW) 3,241 6.7 -8.5°
